User: anonymous   Login
Location: Tucson
(32.2217°N, 110.9265°W)
Time: 17:53:10
(UTC-07:00)
Language:

POLYITAN 1 - Orbit

View from above orbital plane
View from above orbital plane
View from above satellite
View from above satellite

Ground track
Ground track

The orbit data is extracted from the following two-line orbital elements,

1 40042U 14033AJ  21340.59556505  .00000838  00000-0  93873-4 0  9994
2 40042  97.9550 272.7951 0013879 329.2880  30.7523 14.89535149404939
Epoch (UTC): 06 December 2021 14:17:36
Eccentricity: 0.0013879
inclination: 97.9550°
perigee height: 590 km
apogee height: 609 km
right ascension of ascending node: 272.7951°
argument of perigee: 329.2880°
revolutions per day: 14.89535149
mean anomaly at epoch: 30.7523°
orbit number at epoch: 40493

The dashed part of the orbit path shows where the satellite is in the earth's shadow,  

DLR